Retour au catalogue

FENGYUN 1C DEB

ActifSSO
NORAD 30393·DEBRIS·🇨🇳 China

Lancé May 10, 1999 depuis Taiyuan Satellite Launch Center

Loading…

Prochains Passages (prochaines 24 heures)

TLE

FraisSource: Space-Track

Époque: Sep 13, 2026, 10:31 UTC

1 30393U 99025ADG 26256.43854747 -.00000081  00000-0 -24497-4 0  9997
2 30393  99.1269 318.6331 0070738 224.8897 147.5028 13.99071699  1660

Suivez FENGYUN 1C DEB en temps réel avec AllMySat

Download on the App Store